East Quogue, NY

1:40 AM EST on December 04, 2016 (GMT -0500)
The Gabreski

Weather History for KFOK - March, 2014

Change the Weather History Date:

Monday, March 31, 2014

  Actual Average Record
Temperature  
Mean Temperature 38 °F -  
Max Temperature 45 °F 49 °F 70 °F (1999)
Min Temperature 33 °F 32 °F 19 °F (2008)
Degree Days  
Heating Degree Days 26    
Moisture  
Dew Point 33 °F    
Average Humidity 83    
Maximum Humidity 93    
Minimum Humidity 60    
Precipitation  
Precipitation 0.28 in - - ()
Sea Level Pressure  
Sea Level Pressure 29.81 in    
Wind  
Wind Speed 14 mph (North)    
Max Wind Speed 18 mph    
Max Gust Speed 32 mph    
Visibility 6 miles    
Events Fog , Rain , Snow    
Averages and records for this station are not official NWS values.
T = Trace of Precipitation, MM = Missing Value Source: NWS Daily Summary

Daily Weather History Graph

Daily Weather History Graph

Search for Another Location

Airport or City:

Trip Planner

Search our weather history database for the weather conditions in past years. The results will help you decide how hot, cold, wet, or windy it might be!

Date:

Astronomy

Mar. 31, 2014 Rise Set
Actual Time 6:35 AM EDT 7:14 PM EDT
Civil Twilight 6:08 AM EDT 7:41 PM EDT
Nautical Twilight 5:35 AM EDT 8:14 PM EDT
Astronomical Twilight 5:01 AM EDT 8:48 PM EDT
Moon 6:56 AM EDT (3/31) 8:30 PM EDT (3/31)
Length of Visible Light 13h 33m
Length of Day
12h 38m
New Moon, 1% of the Moon is Illuminated
Mar 31
New Moon
Apr 7
First Quarter
Apr 15
Full
Apr 22
Last Quarter
Apr 29
New

Hourly Weather History & Observations

Time (EDT) Temp. Windchill Dew Point Humidity Pressure Visibility Wind Dir Wind Speed Gust Speed Precip Events Conditions
12:08 AM 39.2 °F 30.5 °F 35.6 °F 87% 29.66 in 10.0 mi North 16.1 mph 23.0 mph N/A   Overcast
12:22 AM 39.2 °F 31.2 °F 35.6 °F 87% 29.66 in 10.0 mi NNE 13.8 mph 23.0 mph 0.00 in Rain Light Rain
12:34 AM 39.2 °F 31.2 °F 35.6 °F 87% 29.66 in 10.0 mi NNE 13.8 mph 24.2 mph 0.00 in Rain Light Rain
12:53 AM 39.0 °F 29.9 °F 36.0 °F 89% 29.66 in 10.0 mi North 17.3 mph 24.2 mph 0.00 in   Overcast
1:13 AM 39.2 °F 30.2 °F 35.6 °F 87% 29.67 in 9.0 mi NNE 17.3 mph 25.3 mph 0.00 in Rain Light Rain
1:23 AM 39.2 °F 30.2 °F 35.6 °F 87% 29.67 in 4.0 mi NNE 17.3 mph 28.8 mph 0.01 in Rain Light Rain
1:53 AM 39.0 °F 30.3 °F 35.1 °F 86% 29.68 in 10.0 mi NNE 16.1 mph 25.3 mph 0.01 in Rain Light Rain
2:06 AM 39.2 °F 31.2 °F 35.6 °F 87% 29.67 in 10.0 mi NNE 13.8 mph 20.7 mph 0.00 in   Overcast
2:36 AM 39.2 °F 30.8 °F 35.6 °F 87% 29.67 in 10.0 mi North 15.0 mph 24.2 mph 0.00 in   Overcast
2:53 AM 39.0 °F 30.3 °F 35.1 °F 86% 29.68 in 10.0 mi North 16.1 mph 25.3 mph 0.00 in   Overcast
3:42 AM 37.4 °F 28.5 °F 35.6 °F 93% 29.69 in 4.0 mi North 15.0 mph - 0.00 in Rain Light Rain
3:53 AM 37.9 °F 30.5 °F 35.1 °F 89% 29.70 in 4.0 mi North 11.5 mph - 0.00 in Rain Light Rain
4:18 AM 39.2 °F 32.5 °F 35.6 °F 87% 29.70 in 3.0 mi North 10.4 mph - 0.00 in Rain Light Rain
4:28 AM 39.2 °F 33.6 °F 35.6 °F 87% 29.70 in 3.0 mi North 8.1 mph - 0.00 in Rain Light Rain
4:53 AM 37.9 °F 30.9 °F 36.0 °F 93% 29.71 in 6.0 mi North 10.4 mph - 0.01 in Rain Light Rain
5:53 AM 37.9 °F 29.6 °F 35.1 °F 89% 29.73 in 4.0 mi North 13.8 mph 19.6 mph 0.03 in Rain Light Rain
6:01 AM 37.4 °F 29.8 °F 35.6 °F 93% 29.73 in 5.0 mi North 11.5 mph 19.6 mph 0.00 in Rain Light Rain
6:12 AM 37.4 °F 30.8 °F 35.6 °F 93% 29.73 in 10.0 mi North 9.2 mph 18.4 mph 0.00 in   Overcast
6:53 AM 37.0 °F 27.7 °F 34.0 °F 89% 29.76 in 5.0 mi North 16.1 mph 20.7 mph 0.01 in Rain Light Rain
7:18 AM 37.4 °F 30.3 °F 33.8 °F 87% 29.77 in 3.0 mi North 10.4 mph - 0.00 in Rain Light Rain
7:22 AM 37.4 °F 30.3 °F 33.8 °F 87% 29.78 in 2.5 mi NNW 10.4 mph - 0.01 in Rain Light Rain
7:36 AM 37.4 °F 28.5 °F 33.8 °F 87% 29.79 in 4.0 mi NNW 15.0 mph 20.7 mph 0.02 in Rain Light Rain
7:53 AM 37.0 °F 29.3 °F 34.0 °F 89% 29.80 in 3.0 mi NNW 11.5 mph 21.9 mph 0.02 in Rain Light Rain
8:53 AM 36.0 °F 27.5 °F 33.1 °F 89% 29.82 in 3.0 mi NNW 12.7 mph 20.7 mph 0.03 in Rain Light Rain
9:00 AM 35.6 °F 26.6 °F 33.8 °F 93% 29.82 in 2.5 mi NNW 13.8 mph 20.7 mph 0.00 in Rain Light Rain
9:21 AM 35.6 °F 26.6 °F 33.8 °F 93% 29.83 in 3.0 mi NNW 13.8 mph 21.9 mph 0.01 in Rain Light Rain
9:53 AM 37.0 °F 28.9 °F 34.0 °F 89% 29.85 in 4.0 mi North 12.7 mph 21.9 mph 0.01 in Rain Light Rain
10:53 AM 36.0 °F 26.7 °F 33.1 °F 89% 29.86 in 8.0 mi NNW 15.0 mph 27.6 mph 0.00 in   Overcast
11:08 AM 33.8 °F 25.3 °F 30.2 °F 87% 29.86 in 1.8 mi NNW 11.5 mph 23.0 mph 0.00 in Snow Light Snow
11:21 AM 33.8 °F 24.8 °F 30.2 °F 87% 29.87 in 0.5 mi NNW 12.7 mph 24.2 mph 0.03 in Fog , Snow Snow
11:23 AM 33.8 °F 25.3 °F 30.2 °F 87% 29.86 in 0.2 mi NNW 11.5 mph 24.2 mph 0.03 in Fog , Snow Snow
11:32 AM 33.8 °F 24.3 °F 30.2 °F 87% 29.86 in 0.8 mi NNW 13.8 mph 20.7 mph 0.04 in Snow Light Snow
11:40 AM 33.8 °F 23.9 °F 30.2 °F 87% 29.86 in 2.0 mi NNW 15.0 mph 20.7 mph 0.04 in Rain Light Rain
11:53 AM 33.1 °F 23.9 °F 30.9 °F 92% 29.87 in 1.5 mi NNW 12.7 mph - 0.09 in Rain Rain
12:09 PM 33.8 °F 25.3 °F 30.2 °F 87% 29.87 in 2.0 mi NNW 11.5 mph - 0.04 in Rain Rain
12:24 PM 33.8 °F 25.8 °F 30.2 °F 87% 29.87 in 4.0 mi NNW 10.4 mph - 0.06 in Rain Light Rain
12:53 PM 36.0 °F 26.7 °F 33.1 °F 89% 29.87 in 10.0 mi NNW 15.0 mph 25.3 mph 0.07 in Rain Light Rain
1:53 PM 39.0 °F 30.3 °F 32.0 °F 76% 29.88 in 10.0 mi NNW 16.1 mph 32.2 mph 0.00 in   Overcast
2:53 PM 42.1 °F 34.2 °F 33.1 °F 70% 29.88 in 10.0 mi NNW 16.1 mph 23.0 mph N/A   Overcast
3:05 PM 42.8 °F 34.8 °F 33.8 °F 70% 29.88 in 10.0 mi NNW 17.3 mph 25.3 mph N/A   Overcast
3:53 PM 42.1 °F 34.5 °F 32.0 °F 67% 29.89 in 10.0 mi North 15.0 mph 25.3 mph N/A   Overcast
4:53 PM 44.1 °F 36.5 °F 32.0 °F 63% 29.92 in 10.0 mi North 17.3 mph 25.3 mph N/A   Mostly Cloudy
5:53 PM 44.1 °F 36.5 °F 30.9 °F 60% 29.93 in 10.0 mi North 17.3 mph 26.5 mph N/A   Clear
6:53 PM 42.1 °F 33.6 °F 30.0 °F 62% 29.95 in 10.0 mi North 18.4 mph 24.2 mph N/A   Clear
7:53 PM 41.0 °F 33.1 °F 30.0 °F 65% 29.99 in 10.0 mi NNW 15.0 mph 23.0 mph N/A   Scattered Clouds
8:53 PM 41.0 °F 32.8 °F 28.0 °F 60% 30.01 in 10.0 mi North 16.1 mph 25.3 mph N/A   Overcast
9:53 PM 39.0 °F 30.6 °F 28.0 °F 65% 30.02 in 10.0 mi NNW 15.0 mph 25.3 mph N/A   Overcast
10:53 PM 37.9 °F 30.5 °F 27.0 °F 65% 30.04 in 10.0 mi NNW 11.5 mph 23.0 mph N/A   Clear
11:53 PM 37.9 °F 30.0 °F 27.0 °F 65% 30.04 in 10.0 mi North 12.7 mph 18.4 mph N/A   Overcast